Regional Weather Roundup
Issued by NWS

Home | Current Version | Previous Version | Graphics & Text | Print | Product List | Glossary On
Versions: 1 2 3 4 5 6 7 8 9 10 11 12 13 14 15 16 17 18 19 20 21 22 23 24 25 26 27 28 29 30 31 32 33 34 35 36 37 38 39 40 41 42 43 44 45 46 47 48 49 50
000
ASUS45 KBOU 011107
RWRCO

WEATHER ROUNDUP FOR COLORADO
NATIONAL WEATHER SERVICE DENVER/BOULDER CO
500 AM MDT TUE SEP 01 2015

NOTE: "FAIR" INDICATES FEW OR NO CLOUDS BELOW 12000 FEET WITH NO
SIGNIFICANT WEATHER AND/OR OBSTRUCTIONS TO VISIBILITY.

COZ001>005-013-030-031-011200-
...NORTHWEST COLORADO...

CITY           SKY/WX    TMP DP  RH WIND       PRES   REMARKS
CRAIG          CLEAR     47  42  83 CALM      30.21S
HAYDEN         NOT AVBL
MEEKER         CLEAR     47  44  90 NE5       30.22S
MOUNT WERNER   NOT AVBL
STEAMBOAT SPGS CLEAR     44  42  90 CALM      30.26S
WALDEN         CLEAR     37  36  93 SE5       30.32S
$$

COZ006>008-011-011200-
...WEST CENTRAL VALLEYS...

CITY           SKY/WX    TMP DP  RH WIND       PRES   REMARKS
GRAND JUNCTION PTCLDY    59  52  77 SE7       30.11R
MONTROSE       CLEAR     57  47  69 S9        30.20R
EAGLE          CLEAR     48  46  93 CALM      30.30S
RIFLE          PTCLDY    53  49  86 CALM      30.19S
DELTA          CLEAR     58  51  76 NE5       30.16S
NUCLA          CLEAR     59  43  55 E12       30.23F
$$

COZ017>023-064>068-011200-
...SOUTHWEST COLORADO...

CITY           SKY/WX    TMP DP  RH WIND       PRES   REMARKS
DURANGO        CLOUDY    52  43  71 N6        30.25F
CORTEZ         CLEAR     53  45  74 NE7       30.21S
PAGOSA SPRINGS PTCLDY    48  41  76 CALM      30.33S
TELLURIDE      PTCLDY    49  44  81 SE6       30.43F
WOLF CREEK PAS MOCLDY    41  36  81 SW14      30.60S
$$

COZ009-010-012-014-032>034-037-058>063-011200-
...CENTRAL COLORADO...

CITY           SKY/WX    TMP DP  RH WIND       PRES   REMARKS
ASPEN          CLEAR     48  42  80 S7        30.32S
BUENA VISTA    PTCLDY    49  41  75 CALM      30.33S
COPPER MTN     PTCLDY    45  34  65 W14G20    30.58F
BERTHOUD PASS  FAIR      37  28  70 W23G32    30.59S
COTTONWOOD PAS PTCLDY    55  36  47 W10G18    30.43F
GUNNISON       PTCLDY    45  37  76 CALM      30.37S
KREMMLING      CLEAR     41  37  87 CALM      30.34S
LEADVILLE      PTCLDY    39  35  86 N3        30.44S
MONARCH PASS   PTCLDY    43  36  75 W14       30.67F
SALIDA         PTCLDY    55  43  64 N8        30.37S
SUNLIGHT       CLEAR     46  43  87 CALM      30.52F
WILKERSON PASS MOCLDY    45  37  76 W9        30.54S
$$

COZ069>075-011200-
...SAN LUIS VALLEY/SANGRE DE CRISTO MOUNTAINS...

CITY           SKY/WX    TMP DP  RH WIND       PRES   REMARKS
ALAMOSA        PTCLDY    46  45  96 CALM      30.30F
LA VETA PASS   PTCLDY    46  39  76 MISG      30.44F
SAGUACHE       PTCLDY    50  43  76 N8        30.32F
$$

COZ035-036-038>040-011200-
...NORTHERN COLORADO FRONT RANGE...

CITY           SKY/WX    TMP DP  RH WIND       PRES   REMARKS
DENVER INTL AP PTCLDY    58  52  80 S9        30.10F
DMNS CITY PARK   N/A     60  50  68 E8        30.10S
AURORA         PTCLDY    55  51  85 S5        30.13S
FRONT RANGE AP NOT AVBL
ERIE MUNI ARPT MOCLDY    54  52  92 CALM      30.08S
BOULDER MUN AP MOCLDY    57  52  82 W3        30.09S
CENTENNIAL     MOCLDY    60  51  72 S7        30.13S
BROOMFIELD     MOCLDY    59  50  72 CALM      30.11F
FORT COLLINS   CLEAR     55  48  76 N6        30.10R
LONGMONT       CLEAR     54  49  83 CALM      30.10S
$$

COZ041-046-047-076>085-087-088-011200-
...PIKES PEAK/PALMER DIVIDE AND SOUTHERN FOOTHILLS...

CITY           SKY/WX    TMP DP  RH WIND       PRES   REMARKS
COLO. SPRINGS  PTCLDY    57  51  80 NE8       30.19S
A. F. ACADEMY  PTCLDY    51  47  88 N12       30.20S
ELLICOTT       PTCLDY   N/A N/A N/A CALM      30.17F
FALCON         PTCLDY    52  50  92 MISG      30.23F
FORT CARSON    PTCLDY    62  52  71 VRB3      30.15S
LIMON          PTCLDY    51  50  96 NW6       30.13F
MONUMENT HILL  PTCLDY    50  46  87 S9        30.23S
TRINIDAD       PTCLDY    57  49  74 W6        30.16S
$$

COZ042>045-048>051-090-091-011200-
...NORTHEAST COLORADO...

CITY           SKY/WX    TMP DP  RH WIND       PRES   REMARKS
GREELEY ARPT   PTCLDY    52  46  82 N3        30.07F
AKRON          CLEAR     58  55  90 W13       30.06R
BURLINGTON     CLEAR     60  56  86 W9        30.05F
WRAY           CLOUDY   N/A N/A N/A SW5       30.01R
STERLING       CLEAR     54  52  94 S7        30.00F
HOLYOKE        PTCLDY    61  57  88 SW5       30.00R
FORT MORGAN    CLEAR     55  52  90 W7        30.05S
$$

COZ086-089-092>099-011200-
...SOUTHEAST COLORADO...

CITY           SKY/WX    TMP DP  RH WIND       PRES   REMARKS
PUEBLO         CLEAR     59  51  75 CALM      30.09F
LA JUNTA       PTCLDY    62  56  80 NW6       30.05S
LAMAR          PTCLDY    65  61  87 CALM      30.01R
SPRINGFIELD      N/A     61  54  77 SW6       30.07R
$$



USA.gov is the U.S. government's official web portal to all federal, state and local government web resources and services.